STARLINK-3134, 49434

Orbit data source: Space-Track

STARLINK-3134, 49434 is a payload satellite owned by SpaceX/Seattle (US) in LEO that was launched on Sat, 13 Nov 2021 UTC via an FALCON 9 launch vehicle from the Air Force Eastern Test Range (AFETR). Payload-class satellites include a variety of spacecraft equipped with specific instruments for various scientific and technological missions. These include communications satellites like Starlink; space stations such as the ISS; scientific satellites like the Hubble; Earth observation satellites from companies like Planet Labs, Umbra, and HawkEye 360; GPS; miniature CubeSats for education and research; and military/defense satellites.

Loading next visibility...
Identifier
49434, 2021-104AC
Orbit
LEO
Country
Flag of USUS
Related business
Manufacturer
SpaceX/Seattle
Mission
Operational Commercial Communications
Bus & Motor
STARLINK, Unknown motor
Mass
290 kg wet, ~270 kg dry
Launch date (UTC)
2021-11-13 (5 years ago)
Launch vehicle
FALCON 9
Launch site
Air Force Eastern Test Range (AFETR)
Object type
Payload
Rocket body
Debris
Shape & HBR
Box + 1 Pan, 10.1 m
Radar Cross Section
13.562 m², Large (>1 m²)

Expand to show TLE details & history
Last TLE update: 1 week ago

TLE from 1 week ago
0 STARLINK-3134
1 49434U 21104AC  26154.45837281  .00010050  00000-0  64296-3 0  9994
2 49434  53.2139 204.2367 0001267  52.0021 308.1086 15.09162127252660
Epoch: 2026-06-03T11:00Z
TLE epoch observation values (Epoch: 2026-06-03T11:00:03.410Z)
Latitude
Longitude
147.30579°
Altitude
539.115 km
Speed
7.594 km/s
True Right ascension
13h 36m 56s
True Declination
0° 00' 00"
Sunlit
Object was in full shadow at epoch
Visualization orbit readout
Latitude
Unknown
Longitude
Unknown
Altitude
Unknown
Speed
Unknown
Apparent Right ascension
Unknown
Apparent Declination
Unknown
Sunlit
N/A
Visualization observer readout
Local Sidereal Time
14:52:27
Azimuth
Unknown
Elevation
Unknown
Doppler factor
Unknown
Orbital elements
Apogee altitude
539.881 km
Perigee altitude
538.128 km
Semi-major axis
6,917.141 km
Eccentricity
0.00013
Inclination
53.2139°
RAAN
204.2367°
Arg. of periapsis
52.0021°
True anomaly
308.09717°
Mean anomaly
308.1086°
Eccentric anomaly
308.10289°
Mean motion
3.77271 °/min
Orbital period
95.42 mins
BSTAR
0.00064296
Loading maneuver chart data...
Computing Atmospheric mass density...
Loading historical data...
Loading historical data...
Loading historical data...
Loading historical data...
Loading historical data...
Loading historical data...
Loading historical data...

Documentation

Showing up to 5 results
|